Location: ??????????
(54.7560°N, 39.1389°E)
Time: 14:20:34
(UTC+00:00)

Cosmos 1570 Rocket - Pass Details

Date: 19 May 2025
Orbit: 759 x 785 km, 74.1° (Epoch: 20 June)

Event Time Altitude Azimuth Distance (km) Brightness Sun altitude
Rises 19:40:54 0° 216° (SW) 3,223 6.9 -12.3°
Reaches altitude 10° 19:43:17 10° 220° (SW) 2,304 6.2 -12.5°
Maximum altitude 19:48:28 63° 301° (WNW) 863 4.5 -12.8°
Drops below altitude 10° 19:53:45 10° 23° (NNE) 2,336 7.2 -13.0°
Sets 19:56:11 0° 27° (NNE) 3,272 7.9 -13.2°
